Location: Newark
(25.1987°N, 100.3705°W)
Time: 15:02:20
(UTC+00:00)

LightSail 2 - Visible Passes

Search period start: 09 April 2020 00:00
Search period end: 19 April 2020 00:00
Orbit: 694 x 724 km, 24.0° (Epoch: 08 April)

Date Brightness Start Highest point End Pass type
(mag) Time Alt. Az. Time Alt. Az. Time Alt. Az.
09 Apr 5.9 10:13:47 46° ESE 10:13:47 46° ESE 10:17:30 10° E visible
09 Apr 5.1 11:52:50 10° W 11:57:52 79° S 12:02:55 10° E visible
10 Apr 8.0 09:18:03 11° E 09:18:03 11° E 09:18:09 10° E visible
10 Apr 5.0 10:56:56 43° WSW 10:58:35 79° S 11:03:37 10° E visible
11 Apr 6.3 10:01:12 38° E 10:01:12 38° E 10:04:19 10° E visible
11 Apr 5.1 11:40:05 12° W 11:44:40 72° S 11:49:41 10° ESE visible
12 Apr 5.0 10:44:22 57° WSW 10:45:21 78° S 10:50:24 10° E visible
13 Apr 6.8 09:48:42 28° E 09:48:42 28° E 09:51:03 10° E visible
13 Apr 5.2 11:27:35 17° W 11:31:23 59° S 11:36:20 10° ESE visible
14 Apr 5.0 10:31:57 69° SSW 10:32:03 69° S 10:37:04 10° ESE visible
15 Apr 7.4 09:36:22 19° ESE 09:36:22 19° ESE 09:37:45 10° E visible
15 Apr 5.5 11:15:15 23° WSW 11:18:00 45° SSW 11:22:47 10° ESE visible
16 Apr 5.7 10:19:45 46° SSE 10:19:45 46° SSE 10:23:37 10° ESE visible
17 Apr 7.9 09:24:18 10° ESE 09:24:18 10° ESE 09:24:21 10° ESE visible
17 Apr 6.0 11:03:12 27° SW 11:04:32 31° SSW 11:08:59 10° SE visible
18 Apr 6.8 10:07:51 23° SE 10:07:51 23° SE 10:09:57 10° SE visible
18 Apr 6.9 11:47:21 10° WSW 11:50:15 15° SSW 11:53:07 10° S visible
